User: anonymous   Login
Location: Unspecified
(0.0000°N, 0.0000°E)
Time: 06:02:16
(UTC+00:00)
Language:

OBJECT I - Orbit

View from above orbital plane
View from above orbital plane
View from above satellite
View from above satellite

Ground track
Ground track

The orbit data is extracted from the following two-line orbital elements,

1 43679U 18084J   18349.90412172 -.00000333  00000-0 -27313-4 0  9992
2 43679  97.8415 100.1988 0008730 195.9296 164.1648 14.91918259  7108
Epoch (UTC): 15 December 2018 21:41:56
Eccentricity: 0.0008730
inclination: 97.8415°
perigee height: 586 km
apogee height: 598 km
right ascension of ascending node: 100.1988°
argument of perigee: 195.9296°
revolutions per day: 14.91918259
mean anomaly at epoch: 164.1648°
orbit number at epoch: 710

The dashed part of the orbit path shows where the satellite is in the earth's shadow,  

DLR